Location: Charlottesville
(38.0290°N, 78.4770°W)
Time: 00:22:57
(UTC-04:00)

XW-2F - Visible Passes

Search period start: 26 September 2018 00:00
Search period end: 06 October 2018 00:00
Orbit: 504 x 527 km, 97.5° (Epoch: 24 September)

Date Brightness Start Highest point End Pass type
(mag) Time Alt. Az. Time Alt. Az. Time Alt. Az.
27 Sep ? 06:36:14 10° NE 06:39:13 22° E 06:42:12 10° SSE visible
28 Sep ? 06:22:09 10° ENE 06:24:17 14° E 06:26:25 10° SE visible
30 Sep ? 19:39:17 10° SW 19:41:12 14° W 19:43:08 10° WNW visible
01 Oct ? 19:23:25 10° SW 19:26:15 21° W 19:29:06 10° NW visible
03 Oct ? 06:41:01 10° NE 06:44:12 25° E 06:47:24 10° SSE visible
04 Oct ? 06:26:45 10° NE 06:29:17 17° E 06:31:47 10° SE visible
05 Oct ? 06:13:14 10° ENE 06:14:19 11° E 06:15:22 10° ESE visible
